Temperature
19 18 18 17 17 17 16 16 16 15 15 14 14 13 13 13 13 13 13 13 12 12 12 12 11 11 11 11 10 10 10 10 10 9 9 9 10 10 10 10 10 10 9
18 18 18 17 17 17 17 16 16 16 15 15 15 15 14 13 13 13 13 12 12 12 12 12 11 11 11 10 10 10 10 10 9 9 9 9 9 9 9 9 9 9 9
18 18 18 18 18 17 17 17 17 16 16 15 15 14 13 12 12 12 12 12 12 12 12 12 11 11 11 11 10 10 10 10 10 9 9 9 9 9 9 9 9 9 9
18 18 18 18 18 18 18 18 17 17 16 15 14 14 14 13 14 14 13 13 12 12 12 11 11 11 11 11 10 10 10 10 10 9 9 9 9 9 9 9 9 9 9
18 19 19 19 19 19 18 18 18 17 17 16 15 15 15 15 14 14 13 13 12 12 12 11 11 11 11 11 10 10 10 10 10 10 9 9 9 9 9 9 9 9 9
18 19 19 19 19 19 19 18 18 17 17 16 16 15 15 15 14 14 13 13 13 12 12 12 11 11 11 11 11 10 10 10 10 10 9 9 9 9 9 9 9 9 9
18 18 19 19 19 19 18 18 18 18 17 16 16 16 16 15 15 15 14 14 13 13 13 12 12 11 11 11 11 10 10 10 10 10 9 9 9 9 9 8 8 8 8
18 18 19 19 19 19 19 18 18 18 17 17 16 16 16 15 15 15 14 14 14 14 14 13 12 11 11 11 10 10 10 10 10 9 9 9 9 9 8 8 8 8 8
17 18 18 19 19 19 19 18 18 18 18 17 17 16 16 15 15 15 14 14 14 14 13 13 12 11 11 11 10 10 10 10 10 9 9 9 9 8 8 8 8 7 7
16 17 18 18 18 19 19 18 18 18 18 18 17 16 16 16 15 15 14 14 14 13 13 13 12 11 11 10 10 10 10 10 9 9 9 9 9 8 8 8 8 7 7
16 16 17 17 18 18 18 18 18 18 18 17 17 17 16 16 15 14 14 14 14 13 13 12 12 11 11 10 10 10 10 9 9 9 9 9 8 8 8 8 7 7 7
15 15 16 17 17 17 18 18 17 17 17 17 17 17 16 16 15 15 14 14 13 13 13 12 12 11 11 10 10 10 10 9 9 9 9 8 8 8 8 7 7 7 6
14 14 15 15 16 17 17 17 17 17 17 17 16 16 15 15 15 15 14 13 13 13 12 12 11 11 11 10 10 10 10 9 9 9 9 8 8 8 7 7 7 7 6
12 13 14 14 15 16 16 16 17 17 16 16 16 16 15 15 15 14 14 13 13 12 12 12 11 11 11 10 10 10 9 9 9 9 8 8 8 7 7 7 6 6 6
11 12 13 14 14 15 15 16 16 16 16 16 15 15 15 15 14 14 13 13 12 12 12 11 11 11 10 10 10 10 9 9 9 8 8 8 7 7 7 6 6 6 5
10 11 12 13 13 14 14 15 15 15 15 15 15 15 15 14 14 14 13 13 12 12 11 11 11 10 10 10 10 9 9 9 8 8 8 7 7 7 6 6 6 5 5
9 10 11 11 13 14 14 14 15 15 15 15 15 14 14 14 14 13 13 12 12 12 11 11 10 10 10 10 9 9 9 8 8 8 7 7 7 6 6 6 5 5 4
8 9 10 11 12 13 13 14 14 14 14 14 14 14 14 13 13 13 12 12 12 11 11 11 11 10 10 10 9 9 8 8 8 8 7 7 6 6 5 5 5 4 4
8 9 10 10 11 12 13 13 13 13 13 13 13 13 13 13 13 12 12 12 11 11 11 11 10 10 10 9 9 8 8 8 7 7 7 6 6 5 5 5 4 4 3
8 8 9 10 11 11 12 12 13 12 13 13 13 13 13 13 12 12 12 11 11 11 11 10 10 10 9 9 9 8 8 8 7 7 6 6 5 5 4 4 3 3 3
7 8 9 9 10 11 11 12 12 12 12 12 12 12 12 12 12 12 11 11 11 10 10 10 10 9 9 8 8 8 8 7 7 6 6 5 5 4 4 3 3 2 2
7 7 8 9 9 10 10 11 11 11 11 11 11 11 11 11 11 11 11 10 10 10 10 9 9 9 8 8 8 7 7 7 6 6 5 5 4 4 3 3 2 2 1
6 7 7 8 9 9 10 10 10 10 11 11 11 11 10 10 10 10 10 10 10 9 9 9 8 8 8 7 7 7 6 6 6 5 5 4 4 3 3 2 2 1 1
5 6 7 7 8 8 9 9 10 10 10 10 10 10 10 10 9 9 9 9 9 9 9 8 8 8 7 7 7 6 6 5 5 5 4 4 3 3 2 2 1 1 0
5 5 6 6 7 8 8 9 9 9 9 9 9 9 9 9 9 9 9 9 9 9 9 9 8 8 7 7 6 6 6 5 5 4 4 3 3 2 2 1 1 0 -0
4 5 5 6 6 7 8 8 8 8 9 8 8 8 8 8 8 8 8 8 8 8 8 8 7 7 7 6 6 5 5 5 4 4 3 3 2 2 1 1 0 -0 -1
Wind_Speed
18 18 19 19 19 19 21 22 21 20 18 15 15 14 14 12 11 11 15 18 18 18 14 8 9 8 7 7 7 4 4 2 3 2 1 3 2 2 3 3 3 4 6
14 15 17 19 21 23 24 24 23 22 21 18 16 13 11 9 9 8 12 17 17 17 15 11 9 9 7 8 7 5 4 3 3 3 2 2 4 3 2 2 3 3 4
18 17 18 20 21 23 25 24 25 23 22 17 11 9 7 5 6 9 11 13 17 17 15 13 11 10 9 9 8 7 7 5 4 3 4 3 4 3 3 2 3 3 3
17 17 18 19 21 24 24 24 24 23 22 19 17 17 14 13 13 12 11 11 14 15 16 15 13 11 9 9 9 8 6 6 5 3 3 3 3 3 2 3 3 3 4
16 17 18 20 21 22 22 23 23 23 22 22 21 20 16 13 8 8 11 11 11 13 15 15 13 12 10 10 10 8 7 6 6 5 3 2 1 2 3 4 4 3 4
16 16 16 17 19 20 20 21 23 23 23 23 22 22 20 15 12 12 13 12 9 10 13 14 13 12 10 10 10 10 10 8 7 5 4 4 3 4 4 4 4 4 4
15 15 15 16 17 19 20 21 23 24 23 24 23 23 22 20 18 17 16 13 10 11 14 13 13 11 10 11 10 10 10 9 8 8 6 5 5 4 4 4 3 3 3
14 15 16 17 18 20 21 21 24 23 24 24 23 22 20 17 15 15 13 15 13 13 12 14 12 12 11 11 10 9 9 8 9 9 8 5 5 4 4 4 3 3 3
13 14 14 15 17 19 21 22 23 22 23 24 22 20 19 18 16 15 13 12 10 9 11 13 12 11 11 11 11 9 9 8 9 8 8 6 5 5 4 4 4 4 4
11 12 12 13 15 17 18 19 21 23 21 23 21 18 19 19 16 14 15 14 13 11 12 13 13 12 11 11 11 8 8 9 8 7 8 7 5 5 4 4 4 4 5
8 9 9 10 11 12 15 18 19 18 18 20 19 18 18 17 15 15 15 14 13 13 14 14 13 13 12 11 11 11 10 10 9 8 8 9 7 5 5 4 4 4 4
6 6 7 7 7 10 12 15 17 18 18 18 17 18 17 16 16 16 15 14 13 13 13 13 13 13 12 12 13 12 11 11 11 10 9 9 6 7 5 4 5 5 5
4 4 4 6 7 9 11 13 14 15 15 16 16 16 15 16 17 16 14 14 14 13 12 13 13 13 12 12 12 11 11 11 10 10 10 9 8 7 5 5 5 4 3
3 3 4 5 6 7 9 11 12 12 12 13 15 16 16 17 16 15 14 14 14 14 13 13 13 12 11 11 11 10 10 9 9 8 8 8 8 8 7 5 5 4 3
4 3 3 4 4 4 6 9 10 11 12 13 14 15 14 13 13 13 13 13 13 13 13 12 11 11 10 10 11 10 10 9 8 7 6 6 7 8 6 5 5 4 3
5 5 4 3 4 5 5 7 9 10 11 13 13 12 12 12 13 13 13 13 12 12 12 12 12 11 9 12 15 12 9 9 8 7 5 5 6 7 7 6 6 5 4
6 6 5 4 5 5 5 7 8 8 10 11 11 11 12 12 12 12 12 13 12 11 11 11 11 11 11 14 15 15 10 8 8 7 6 4 5 6 5 4 4 3 3
7 7 5 5 4 2 2 3 5 8 9 9 10 10 11 12 11 12 12 12 10 11 11 10 10 9 10 14 15 15 10 7 7 7 7 7 5 5 6 5 3 2 1
6 6 5 5 3 2 2 3 5 7 8 9 9 10 11 12 12 12 12 10 9 9 9 9 10 10 10 14 16 14 8 6 6 5 6 7 6 7 8 6 4 2 1
6 5 5 3 2 1 2 5 6 7 8 8 8 9 10 11 12 12 10 8 8 9 9 8 8 9 9 13 16 15 7 7 5 4 5 7 7 8 9 7 5 4 2
7 6 4 3 2 1 2 4 5 7 6 6 7 7 9 10 10 9 8 9 8 9 8 8 7 7 9 13 16 15 8 8 7 6 4 5 8 8 8 7 5 4 3
7 6 4 4 3 1 3 4 4 4 5 6 7 7 7 7 8 10 9 9 10 9 8 8 6 5 7 9 13 15 12 10 8 6 5 5 9 9 8 5 5 5 4
7 6 4 4 3 2 2 4 3 4 5 6 6 6 7 7 8 10 10 9 8 8 8 8 7 6 5 7 12 14 14 12 7 6 9 9 10 9 6 6 6 5 3
7 5 5 5 4 3 2 3 3 4 6 7 6 7 7 7 7 7 8 8 8 8 9 9 8 7 6 6 7 7 8 10 8 7 9 11 10 7 5 5 4 2 3
6 5 4 5 6 4 3 2 3 5 6 6 6 6 6 7 7 5 6 7 7 9 10 9 9 10 9 9 13 11 9 8 8 8 5 4 4 3 3 2 2 2 2
7 6 6 6 6 4 4 3 4 6 7 6 6 6 6 6 6 6 4 4 5 9 10 11 10 7 10 15 16 14 14 15 16 9 5 5 5 4 4 4 2 2 2
Wind_Direction
213 203 199 195 190 188 186 185 185 183 180 182 183 185 190 189 190 191 189 188 188 186 183 181 180 179 181 181 171 159 161 170 145 105 7 331 308 259 242 219 209 214 219
217 206 200 195 192 191 190 188 188 185 185 188 189 189 184 186 188 187 190 190 188 187 188 183 184 184 179 178 178 164 158 173 162 144 128 316 324 303 272 249 228 227 217
214 208 200 197 195 194 192 191 190 188 189 185 177 165 157 156 177 191 196 195 191 191 190 188 185 185 184 189 189 179 171 182 198 173 158 174 230 279 302 269 247 237 233
215 210 202 198 197 198 194 192 191 190 189 183 180 179 184 191 196 193 195 192 193 192 192 190 189 189 190 190 192 188 181 173 191 205 201 187 168 183 275 298 276 253 244
214 210 206 201 199 197 194 194 191 191 189 187 187 188 194 197 185 179 184 190 194 194 193 192 193 194 195 193 191 188 187 185 184 183 176 184 183 181 195 258 281 283 256
217 213 208 201 199 196 194 192 191 192 189 189 190 193 195 189 179 185 190 194 195 196 196 195 195 196 196 195 194 192 191 193 189 187 178 174 180 197 197 226 248 261 269
217 213 207 201 199 195 194 192 191 193 191 191 193 196 197 193 193 193 195 194 195 200 200 197 197 197 197 194 191 193 197 195 193 197 201 200 204 184 183 201 235 254 274
217 214 209 203 200 197 194 193 193 193 191 193 196 197 196 196 200 197 196 198 202 203 195 195 196 196 194 193 191 196 198 196 200 203 201 205 211 194 186 186 194 254 281
222 220 214 208 202 197 196 194 193 194 193 194 195 195 195 196 198 195 194 198 199 194 189 193 195 195 193 192 190 199 200 196 204 206 204 208 211 201 203 192 185 198 249
227 224 218 211 206 201 196 194 194 195 193 193 194 195 195 197 195 191 195 196 195 189 186 190 194 195 194 193 193 197 197 197 205 201 201 210 211 205 202 203 204 202 213
231 230 224 212 204 198 193 193 194 194 193 194 193 193 194 194 191 193 196 196 191 188 189 191 193 196 197 195 197 201 195 200 204 199 204 213 204 204 207 205 208 213 207
242 233 225 204 193 193 192 192 193 193 193 192 191 193 191 189 191 195 194 191 191 191 190 189 193 196 196 196 199 202 199 201 204 204 204 212 202 207 207 205 213 218 214
288 268 232 206 197 196 193 191 191 193 191 187 188 189 189 189 193 194 190 188 189 188 188 189 194 196 195 195 198 198 198 202 205 203 205 207 197 208 207 206 214 218 216
293 271 239 220 207 198 192 189 190 187 183 183 187 189 191 192 192 189 186 186 186 187 189 190 192 194 193 194 193 193 195 199 202 201 203 201 199 206 203 204 210 205 205
318 301 259 227 210 201 195 189 188 183 179 181 187 193 190 187 184 183 183 183 184 186 185 185 187 187 189 191 188 189 190 194 195 193 195 196 195 196 192 194 196 188 199
308 304 287 235 212 208 202 192 188 183 179 183 187 184 179 179 181 182 180 180 181 181 180 184 186 186 190 186 182 182 185 185 186 187 182 182 186 186 186 185 181 180 191
316 302 291 263 234 217 206 199 189 176 176 181 179 176 175 178 180 177 176 179 180 178 179 183 183 186 186 178 177 176 176 178 183 181 177 176 180 173 172 170 158 173 189
317 308 298 287 271 235 204 190 169 168 173 175 174 173 172 174 172 172 177 179 176 177 179 179 179 178 178 170 168 166 169 171 175 177 178 175 173 172 161 154 156 174 214
300 299 298 290 280 245 172 153 160 163 166 172 174 174 171 169 169 173 176 174 171 173 175 174 173 173 172 166 163 159 167 166 167 168 167 167 172 169 158 153 161 168 241
317 314 313 313 302 285 158 154 164 167 177 178 173 170 168 169 173 174 171 166 165 168 165 165 171 171 170 165 162 158 162 164 162 157 163 166 166 164 160 162 167 182 205
319 319 320 310 287 256 161 168 171 185 183 163 155 161 165 167 168 164 160 156 154 154 156 156 160 165 166 164 163 162 166 167 163 164 166 167 158 156 158 160 172 184 169
318 320 322 316 311 261 162 173 191 185 150 146 150 156 159 157 156 156 155 152 153 154 155 153 152 157 161 162 167 166 165 160 162 167 165 160 153 151 152 155 155 143 129
311 315 315 315 315 301 194 189 190 150 147 147 151 151 150 153 156 158 158 156 158 161 163 164 167 164 158 160 157 161 160 155 153 154 153 150 146 144 147 145 139 135 134
306 314 321 316 307 301 273 207 170 153 151 155 154 153 154 155 155 158 162 165 168 168 168 170 170 164 159 158 157 159 155 148 141 137 140 136 133 127 129 131 131 134 150
299 297 295 291 285 287 276 217 171 156 156 157 158 157 158 159 158 158 167 169 178 177 174 175 170 168 175 176 164 160 160 158 149 135 123 123 132 136 133 128 126 126 124
296 294 291 288 282 272 259 225 183 167 163 164 165 164 160 158 156 149 124 111 148 158 161 161 159 164 160 156 158 155 152 149 147 138 146 153 157 164 165 162 155 146 150
Height
1434 1438 1442 1447 1451 1456 1460 1464 1469 1473 1478 1483 1486 1490 1494 1498 1501 1505 1508 1511 1514 1517 1520 1522 1525 1527 1529 1531 1533 1534 1536 1537 1538 1539 1539 1539 1539 1539 1539 1538 1538 1538 1537
1428 1432 1436 1440 1445 1449 1453 1458 1463 1467 1472 1476 1480 1485 1489 1494 1498 1501 1505 1508 1511 1514 1516 1519 1521 1524 1526 1528 1530 1531 1533 1534 1536 1537 1537 1537 1537 1536 1536 1536 1536 1536 1535
1421 1425 1429 1433 1438 1442 1446 1451 1456 1461 1466 1471 1477 1482 1487 1491 1494 1497 1500 1503 1506 1509 1512 1515 1518 1520 1522 1524 1526 1528 1530 1531 1533 1534 1535 1535 1533 1534 1533 1533 1533 1533 1532
1414 1418 1422 1426 1430 1435 1440 1445 1450 1455 1460 1466 1470 1474 1477 1480 1484 1489 1493 1498 1501 1505 1508 1511 1514 1516 1519 1521 1523 1525 1527 1528 1529 1531 1532 1533 1532 1532 1530 1531 1530 1530 1530
1407 1410 1414 1418 1423 1428 1433 1438 1444 1448 1454 1459 1463 1467 1471 1476 1481 1485 1489 1493 1497 1500 1503 1506 1509 1511 1514 1516 1519 1521 1523 1524 1526 1527 1528 1528 1529 1529 1528 1527 1527 1527 1526
1399 1403 1407 1412 1416 1422 1427 1431 1436 1441 1446 1452 1456 1460 1465 1470 1475 1479 1483 1487 1491 1495 1498 1501 1504 1506 1509 1512 1514 1517 1518 1520 1522 1523 1524 1524 1525 1525 1525 1524 1523 1522 1522
1392 1396 1400 1404 1409 1414 1419 1424 1429 1434 1439 1444 1449 1454 1459 1464 1468 1472 1477 1481 1485 1488 1491 1495 1498 1501 1504 1507 1510 1512 1514 1516 1517 1518 1520 1521 1521 1522 1522 1521 1519 1518 1517
1384 1388 1392 1397 1401 1406 1411 1416 1421 1426 1431 1437 1442 1447 1453 1458 1462 1467 1471 1475 1478 1482 1486 1489 1492 1496 1499 1502 1505 1507 1509 1511 1512 1514 1515 1516 1517 1518 1518 1517 1517 1515 1513
1378 1381 1385 1389 1394 1399 1403 1408 1413 1419 1424 1429 1435 1440 1446 1451 1456 1460 1465 1469 1473 1477 1481 1484 1488 1491 1494 1497 1499 1501 1504 1506 1508 1509 1511 1512 1513 1513 1513 1513 1513 1513 1509
1372 1375 1378 1382 1387 1391 1397 1402 1407 1412 1417 1423 1428 1433 1439 1444 1449 1454 1459 1463 1467 1472 1475 1479 1482 1485 1488 1491 1494 1496 1498 1501 1502 1504 1506 1507 1508 1508 1509 1509 1508 1508 1506
1367 1369 1372 1376 1380 1385 1390 1395 1400 1405 1411 1416 1422 1427 1432 1438 1443 1448 1452 1457 1462 1466 1469 1473 1477 1480 1483 1486 1488 1491 1493 1495 1497 1499 1500 1501 1503 1503 1504 1504 1503 1503 1502
1364 1366 1368 1371 1375 1379 1383 1388 1393 1398 1404 1409 1415 1420 1426 1431 1436 1441 1446 1451 1456 1460 1464 1468 1471 1474 1477 1480 1483 1485 1487 1489 1491 1493 1495 1496 1497 1498 1499 1499 1498 1498 1497
1361 1363 1365 1367 1369 1373 1377 1382 1387 1392 1398 1404 1409 1414 1420 1425 1430 1435 1440 1445 1450 1454 1458 1462 1465 1469 1472 1475 1477 1480 1482 1484 1486 1488 1490 1491 1492 1493 1493 1493 1493 1492 1492
1360 1360 1361 1363 1365 1369 1372 1377 1381 1387 1392 1398 1403 1408 1413 1418 1424 1429 1435 1439 1444 1448 1452 1456 1460 1463 1467 1469 1472 1475 1477 1479 1481 1483 1484 1486 1487 1487 1488 1488 1488 1487 1486
1358 1358 1358 1360 1362 1364 1368 1372 1376 1381 1387 1392 1396 1401 1407 1413 1419 1424 1429 1434 1439 1443 1447 1451 1455 1458 1461 1464 1467 1470 1472 1474 1476 1478 1479 1480 1481 1482 1483 1483 1483 1482 1482
1358 1357 1356 1357 1359 1361 1364 1368 1372 1376 1381 1386 1391 1396 1402 1407 1413 1418 1424 1429 1433 1438 1442 1446 1449 1453 1456 1459 1462 1465 1467 1469 1471 1473 1474 1475 1477 1477 1478 1478 1478 1478 1477
1357 1355 1355 1355 1356 1358 1360 1364 1368 1372 1376 1381 1386 1391 1397 1402 1407 1413 1418 1423 1428 1432 1436 1440 1444 1447 1451 1454 1457 1460 1462 1465 1466 1468 1469 1470 1471 1472 1473 1473 1473 1473 1472
1356 1354 1353 1353 1354 1355 1357 1361 1365 1368 1372 1377 1382 1387 1392 1397 1402 1407 1412 1418 1423 1427 1431 1435 1439 1443 1446 1449 1452 1455 1458 1460 1462 1463 1465 1466 1467 1468 1468 1469 1469 1468 1468
1354 1353 1351 1351 1351 1352 1354 1357 1361 1365 1369 1373 1377 1382 1387 1392 1397 1402 1407 1413 1418 1422 1426 1431 1434 1438 1441 1444 1447 1451 1453 1455 1457 1458 1460 1461 1462 1463 1464 1464 1464 1464 1464
1352 1350 1350 1349 1349 1350 1352 1355 1358 1361 1365 1369 1373 1377 1382 1387 1392 1397 1403 1408 1413 1417 1422 1426 1430 1433 1436 1439 1443 1446 1448 1450 1452 1454 1455 1457 1458 1459 1459 1460 1460 1460 1459
1350 1349 1348 1348 1348 1349 1351 1353 1355 1358 1362 1366 1370 1374 1378 1383 1388 1393 1398 1403 1408 1413 1417 1421 1425 1429 1432 1435 1438 1441 1444 1446 1448 1449 1451 1452 1454 1455 1455 1456 1456 1456 1456
1349 1347 1346 1345 1346 1347 1349 1350 1353 1356 1359 1363 1366 1371 1375 1379 1384 1389 1394 1399 1404 1408 1412 1416 1420 1424 1427 1431 1433 1436 1439 1442 1444 1445 1447 1449 1450 1451 1452 1452 1452 1453 1452
1347 1346 1344 1343 1344 1345 1347 1349 1351 1354 1357 1360 1363 1367 1371 1376 1380 1385 1389 1394 1399 1403 1407 1411 1415 1419 1423 1426 1429 1432 1435 1438 1440 1442 1443 1445 1446 1447 1448 1449 1449 1449 1448
1345 1344 1342 1341 1341 1343 1345 1346 1348 1351 1354 1357 1360 1364 1368 1372 1376 1381 1385 1390 1394 1398 1402 1406 1410 1414 1417 1421 1424 1427 1430 1433 1436 1438 1440 1442 1443 1444 1444 1445 1445 1445 1444
1343 1341 1340 1340 1340 1341 1342 1343 1346 1348 1350 1353 1357 1360 1364 1368 1372 1377 1381 1386 1390 1394 1398 1401 1405 1408 1412 1416 1420 1423 1426 1429 1432 1434 1436 1438 1439 1440 1440 1441 1441 1441 1441
1339 1338 1337 1337 1337 1337 1338 1340 1343 1345 1347 1350 1353 1357 1360 1364 1368 1373 1378 1383 1388 1392 1396 1400 1403 1407 1410 1414 1417 1420 1423 1426 1429 1431 1432 1433 1435 1436 1437 1437 1437 1437 1437